Content
SEND FEEDBACK

Daily
Averages
Monthly
Summary
United States of America

MEYERS, CALIFORNIA


Home > North America > United States > California
Elevation: 6470 feet     Latitude: 38 49N     Longitude: 120 01W

WEATHER
 
SELECT A DAY
Number of Records: 174,493;   Date Range: 1/1/95 - 8/12/14
 
SHARE

PRINT THIS DATA

[ ← Previous Day ]
WEATHER ALMANAC - JANUARY 3, 2013
[ Next Day → ]
[ °C ]   °F
Weather ElementAverageHighLow
Temperature18.5 °F45 °F (1:53 pm) (4:53 am)
Dewpoint9.4 °F24.1 °F (3:53 pm)-6 °F (4:53 am)
Humidity70.1 %81 % (9:53 am)31 % (1:53 pm)
Barometer30.36 in30.47 in (7:53 pm)30.24 in (1:53 pm)
Wind Speed2.8 mph5.8 mph (11:53 am)
Weather ElementAverage
Visibility9.3 mi
Wind DirectionESE (107 °)

Weather ElementTotal
Precipitation---
Heating Degree Days42.5 (Base 65)
Averaged from 23 records on January 3, 2013
WEATHER CONDITIONS BREAKOUT
WIND DIRECTION BREAKOUT
WEATHER BY HOUR - JANUARY 3, 2013
[ °C ]   °F
Local TimeTemperatureDewpointHumidityBarometerVisibilityWind DirectionWind SpeedGust SpeedPrecipitationEventsConditions
1:53 AM6.1 °F1.0 °F80 %30.26 in9.0 miCalmClear
2:53 AM5.0 °F-0.9 °F76 %30.25 in8.0 miCalmClear
3:53 AM3.9 °F-0.9 °F80 %30.31 in8.0 miCalmClear
4:53 AM0.0 °F-6.0 °F76 %30.36 in9.0 miSouth (190°)4.6 mphClear
5:53 AM1.9 °F-4.0 °F76 %30.38 in10.0 miSSW (210°)4.6 mphClear
6:53 AM0.0 °F-6.0 °F76 %30.43 in10.0 miSouth (190°)3.5 mphClear
7:53 AM1.0 °F-4.0 °F79 %30.43 in8.0 miSouth (190°)4.6 mphClear
8:53 AM5.0 °F0.0 °F80 %30.43 in8.0 miSouth (190°)3.5 mphClear
9:53 AM17.1 °F12.0 °F81 %30.40 in10.0 miSouth (180°)4.6 mphClear
10:53 AM28.9 °F16.0 °F58 %30.34 in10.0 miCalmClear
11:53 AM39.0 °F21.0 °F49 %30.28 in10.0 miNE (40°)5.8 mphClear
12:53 PM41.0 °F17.1 °F38 %30.28 in10.0 miNNE (20°)3.5 mphClear
1:53 PM45.0 °F16.0 °F31 %30.24 in10.0 miNE (40°)3.5 mphClear
2:53 PM42.1 °F23.0 °F47 %30.27 in10.0 miNorth (10°)3.5 mphClear
3:53 PM34.0 °F24.1 °F67 %30.33 in10.0 miCalmClear
4:53 PM25.0 °F19.0 °F78 %30.41 in10.0 miCalmClear
5:53 PM24.1 °F18.0 °F77 %30.42 in10.0 miSSW (200°)3.5 mphClear
6:53 PM25.0 °F17.1 °F72 %30.41 in10.0 miWSW (240°)3.5 mphClear
7:53 PM18.0 °F12.9 °F81 %30.47 in10.0 miCalmClear
8:53 PM17.1 °F10.9 °F77 %30.47 in10.0 miSSW (200°)4.6 mphClear
9:53 PM17.1 °F10.9 °F77 %30.41 in9.0 miSouth (180°)3.5 mphClear
10:53 PM15.1 °F9.0 °F77 %30.36 in8.0 miSouth (190°)3.5 mphClear
11:53 PM14.0 °F9.0 °F80 %30.32 in7.0 miSouth (190°)3.5 mphClear
Hourly data recorded from KTVL, located miles away from Meyers, California







STORIES FROM OUR PARTNERS